M I D A S
Marine Information and Data Acquisition System
Tripno 1555 of the Zeeleeuw from 2008-08-05 05:30:06 to 2008-08-05 16:48:53
Back to CruiseResearch ActivitiesStationsMapUnderway DataData graphs

EquipmentUnitsComment
TimeDGPSUTC
LatitudeDGPSDM.mWGS84
LongitudeDGPSDM.mWGS84
TemperatureSBE03/SBE38deg celciusITS90
ConductivitySBE21S/mITS90
SalinitySBE21 Practical Salinity Units
ChlorophylAChelsea fluorimeterµg/lCalibrated in Aceton
Missing or incorrect values are displayed as -999
Sea surface data collected by the RV Zeeleeuw from 2008-08-05 05:30:06 to 2008-08-05 16:53:47
Time Latitude Longitude Temperature Conductivity Salinity ChlorophylA
2008-08-05 05:31:11 51°13.639 2°55.992 22.5449 2.135456 14.002441 -1.383633
2008-08-05 05:32:11 51°13.669 2°55.893 22.5686 2.135353 14.002446 -1.418457
2008-08-05 05:33:11 51°13.697 2°55.801 22.5518 2.135249 14.002698 -1.383633
2008-08-05 05:34:11 51°13.705 2°55.734 22.5539 2.135146 14.002951 -1.418457
2008-08-05 05:35:11 51°13.713 2°55.722 22.5876 2.13494 14.002465 -1.383633
2008-08-05 05:36:11 51°13.777 2°55.689 22.5151 2.13463 13.999006 -1.418457
2008-08-05 05:37:11 51°13.893 2°55.587 22.498 2.134526 14.000251 -1.418457
2008-08-05 05:38:11 51°14.028 2°55.476 22.5538 2.134423 14.001 -1.418457
2008-08-05 05:39:11 51°14.17 2°55.369 22.5548 2.13432 14.00175 -1.383633
2008-08-05 05:40:11 51°14.282 2°55.254 22.5754 2.13432 14.002991 -1.383633
2008-08-05 05:41:11 51°14.354 2°55.129 22.5797 2.134217 14.003244 -1.383633
2008-08-05 05:42:11 51°14.47 2°54.913 22.49 2.133907 14.00028 -1.383633
2008-08-05 05:43:12 51°14.657 2°54.762 22.5067 2.133907 14.001025 -1.418457
2008-08-05 05:44:12 51°14.849 2°54.638 22.5136 2.133803 14.001774 -1.383633
2008-08-05 05:45:12 51°15.036 2°54.502 22.4999 2.1337 13.999793 -1.383633
2008-08-05 05:46:12 51°15.217 2°54.342 22.5289 2.133493 14.001541 -1.418457
2008-08-05 05:47:12 51°15.396 2°54.179 22.5316 2.133597 14.009239 -1.383633
2008-08-05 05:48:12 51°15.576 2°54.015 22.5126 2.13339 14.014225 -1.383633
2008-08-05 05:49:12 51°15.754 2°53.848 22.5384 2.13308 14.007774 -1.383633
2008-08-05 05:50:12 51°15.931 2°53.678 22.5335 2.133081 14.018475 -1.383633
2008-08-05 05:51:12 51°16.113 2°53.517 22.5416 2.132668 14.021989 -1.418457
2008-08-05 05:52:12 51°16.295 2°53.355 22.5429 2.132255 14.026255 -1.383633
2008-08-05 05:53:12 51°16.473 2°53.184 22.5516 2.131945 14.028273 -1.383633
2008-08-05 05:54:12 51°16.652 2°53.015 22.5471 2.131738 14.0213 -1.383633
2008-08-05 05:55:12 51°16.833 2°52.854 22.5492 2.131532 14.031048 -1.383633
2008-08-05 05:56:12 51°17.023 2°52.717 22.5414 2.131119 14.046089 -1.383633
2008-08-05 05:57:12 51°17.23 2°52.661 22.5703 2.131015 14.029585 -1.383633
2008-08-05 05:58:12 51°17.442 2°52.65 22.5609 2.130292 14.045654 -1.383633
2008-08-05 05:59:12 51°17.653 2°52.641 22.5578 2.130396 14.05091 -1.383633
2008-08-05 06:00:12 51°17.859 2°52.707 22.5871 2.130189 14.052935 -1.383633
2008-08-05 06:01:12 51°18.066 2°52.771 22.5946 2.129053 14.043749 -1.383633
2008-08-05 06:02:12 51°18.274 2°52.824 22.5954 2.128537 14.043039 -1.383633
2008-08-05 06:03:12 51°18.483 2°52.87 22.6096 2.128433 14.04656 -1.383633
2008-08-05 06:04:12 51°18.669 2°53.011 22.6045 2.12833 14.050083 -1.418457
2008-08-05 06:05:12 51°18.803 2°53.261 22.616 2.12771 14.046872 -1.383633
2008-08-05 06:06:12 51°18.927 2°53.523 22.6198 2.127607 14.046128 -1.383633
2008-08-05 06:07:12 51°19.053 2°53.784 22.632 2.127091 14.044665 -1.383633
2008-08-05 06:08:12 51°19.18 2°54.045 22.6528 2.126574 14.043453 -1.383633
2008-08-05 06:09:12 51°19.31 2°54.301 22.6447 2.126264 14.043731 -1.383633
2008-08-05 06:10:12 51°19.441 2°54.555 22.6654 2.126161 14.04374 -1.383633
2008-08-05 06:11:12 51°19.573 2°54.808 22.6607 2.125644 14.03876 -1.383633
2008-08-05 06:12:12 51°19.704 2°55.063 22.6729 2.125748 14.042016 -1.383633
2008-08-05 06:13:12 51°19.833 2°55.317 22.6934 2.125541 14.039773 -1.418457
2008-08-05 06:14:12 51°19.961 2°55.577 22.6945 2.125335 14.038535 -1.383633
2008-08-05 06:15:12 51°20.086 2°55.836 22.7068 2.125025 14.037556 -1.418457
2008-08-05 06:16:12 51°20.211 2°56.092 22.7182 2.125025 14.035297 -1.418457
2008-08-05 06:17:12 51°20.344 2°56.337 22.7242 2.125128 14.039557 -1.383633
2008-08-05 06:18:12 51°20.471 2°56.592 22.7179 2.124715 14.032811 -1.383633
2008-08-05 06:19:12 51°20.588 2°56.859 22.7527 2.124302 14.0341 -1.383633
2008-08-05 06:20:12 51°20.713 2°57.115 22.7526 2.124095 14.036126 -1.383633
2008-08-05 06:21:12 51°20.839 2°57.37 22.7713 2.124198 14.033355 -1.383633
2008-08-05 06:22:12 51°20.967 2°57.621 22.7515 2.123682 14.037166 -1.383633
2008-08-05 06:23:12 51°21.093 2°57.878 22.7844 2.123682 14.027623 -1.383633
2008-08-05 06:24:12 51°21.221 2°58.128 22.7815 2.123682 14.044207 -1.383633
2008-08-05 06:25:12 51°21.347 2°58.383 22.811 2.123062 14.03571 -1.383633
2008-08-05 06:26:12 51°21.471 2°58.639 22.7897 2.122856 14.034219 -1.383633
2008-08-05 06:27:12 51°21.597 2°58.892 22.823 2.122752 14.035485 -1.383633
2008-08-05 06:28:12 51°21.724 2°59.144 22.8347 2.122856 14.045539 -1.383633
2008-08-05 06:29:12 51°21.854 2°59.391 22.8303 2.122339 14.033257 -1.383633
2008-08-05 06:30:12 51°21.98 2°59.647 22.8478 2.122339 14.03728 -1.383633
2008-08-05 06:31:12 51°22.11 2°59.896 22.8676 2.122339 14.038789 -1.383633
2008-08-05 06:32:12 51°22.236 3°0.145 22.8696 2.121926 14.035303 -1.383633
2008-08-05 06:33:12 51°22.364 3°0.394 22.8618 2.122029 14.035043 -1.383633
2008-08-05 06:34:12 51°22.455 3°0.676 22.889 2.121926 14.037316 -1.383633
2008-08-05 06:35:12 51°22.546 3°0.955 22.9105 2.121926 14.039329 -1.383633
2008-08-05 06:36:12 51°22.654 3°1.221 22.8972 2.121513 14.033326 -1.383633
2008-08-05 06:37:12 51°22.754 3°1.461 22.9065 2.121616 14.036336 -1.383633
2008-08-05 06:38:12 51°22.817 3°1.598 22.9365 2.121513 14.036345 -1.383633
2008-08-05 06:39:12 51°22.871 3°1.634 22.9474 2.120996 14.028592 -1.383633
2008-08-05 06:40:12 51°22.913 3°1.64 22.9327 2.1211 14.030092 -1.383633
2008-08-05 06:41:12 51°22.947 3°1.638 22.955 2.1211 14.030092 -1.383633
2008-08-05 06:42:12 51°22.97 3°1.635 22.9671 2.1211 14.032355 -1.383633
2008-08-05 06:43:12 51°22.986 3°1.631 22.9639 2.120893 14.031115 -1.383633
2008-08-05 06:44:12 51°22.998 3°1.625 22.9716 2.12079 14.034646 -1.383633
2008-08-05 06:45:12 51°23.009 3°1.619 22.976 2.120687 14.033397 -1.383633
2008-08-05 06:46:12 51°23.018 3°1.615 22.9976 2.12048 14.030898 -1.383633
2008-08-05 06:47:12 51°23.025 3°1.61 23 2.120273 14.030161 -1.383633
2008-08-05 06:48:12 51°23.033 3°1.607 23.0134 2.12017 14.031176 -1.383633
2008-08-05 06:49:12 51°23.042 3°1.602 23.0227 2.119963 14.029432 -1.383633
2008-08-05 06:50:12 51°23.05 3°1.597 23.0108 2.119963 14.030438 -1.383633
2008-08-05 06:51:12 51°23.062 3°1.592 23.0249 2.11955 14.028712 -1.383633
2008-08-05 06:52:12 51°23.106 3°1.619 23.0349 2.119344 14.031247 -1.383633
2008-08-05 06:53:12 51°23.089 3°1.687 23.0618 2.119964 14.04152 -1.383633
2008-08-05 06:54:12 51°23.06 3°1.711 23.0873 2.11955 14.034502 -1.383633
2008-08-05 06:55:12 51°23.037 3°1.729 23.0975 2.119034 14.029259 -1.383633
2008-08-05 06:56:12 51°23.027 3°1.732 23.1181 2.118931 14.030023 -1.383633
2008-08-05 06:57:12 51°23.021 3°1.726 23.1314 2.118931 14.030275 -1.383633
2008-08-05 06:58:12 51°23.016 3°1.715 23.1559 2.118827 14.029025 -1.383633
2008-08-05 06:59:12 51°23.013 3°1.703 23.17 2.118724 14.031804 -1.383633
2008-08-05 07:00:12 51°22.987 3°1.731 23.2081 2.118311 14.025292 -1.383633
2008-08-05 07:01:12 51°23.024 3°1.84 23.2129 2.117794 14.01829 -1.383633
2008-08-05 07:02:12 51°23.078 3°1.926 23.2339 2.118208 14.027315 -1.383633
2008-08-05 07:03:12 51°23.113 3°1.981 23.2524 2.118001 14.024815 -1.383633
2008-08-05 07:04:12 51°23.124 3°1.997 23.2729 2.118001 14.02557 -1.383633
2008-08-05 07:05:12 51°23.126 3°1.997 23.2906 2.117898 14.024824 -1.383633
2008-08-05 07:06:12 51°23.126 3°1.99 23.3192 2.117898 14.025831 -1.383633
2008-08-05 07:07:12 51°23.126 3°1.979 23.3354 2.117588 14.022584 -1.383633
2008-08-05 07:08:12 51°23.114 3°1.993 23.3834 2.117898 14.026334 -1.383633
2008-08-05 07:09:12 51°23.146 3°2.091 23.3857 2.117174 14.016579 -1.383633
2008-08-05 07:10:12 51°23.183 3°2.138 23.4065 2.117381 14.022349 -1.383633
2008-08-05 07:11:12 51°23.192 3°2.146 23.4305 2.117381 14.02386 -1.383633
2008-08-05 07:12:12 51°23.195 3°2.149 23.4529 2.117278 14.021603 -1.383633
2008-08-05 07:13:12 51°23.193 3°2.155 23.481 2.117381 14.023356 -1.383633
2008-08-05 07:14:12 51°23.197 3°2.207 23.5125 2.117071 14.022879 -1.383633
2008-08-05 07:15:12 51°23.214 3°2.265 23.5363 2.117071 14.021871 -1.383633
2008-08-05 07:16:12 51°23.223 3°2.279 23.5616 2.116865 14.019371 -1.383633
2008-08-05 07:17:12 51°23.226 3°2.289 23.5779 2.116658 14.017375 -1.383633
2008-08-05 07:18:12 51°23.226 3°2.29 23.5982 2.116761 14.01938 -1.383633
2008-08-05 07:19:12 51°23.222 3°2.293 23.6284 2.117175 14.026396 -1.383633
2008-08-05 07:20:12 51°23.224 3°2.323 23.6602 2.116658 14.021402 -1.383633
2008-08-05 07:21:12 51°23.242 3°2.36 23.681 2.116452 14.02016 -1.383633
2008-08-05 07:22:12 51°23.261 3°2.37 23.7063 2.116245 14.018918 -1.383633
2008-08-05 07:23:12 51°23.28 3°2.371 23.7278 2.116142 14.018172 -1.383633
2008-08-05 07:24:12 51°23.298 3°2.368 23.752 2.116142 14.017416 -1.383633
2008-08-05 07:25:12 51°23.316 3°2.362 23.7854 2.116245 14.021689 -1.383633
2008-08-05 07:26:12 51°23.335 3°2.355 23.8046 2.115728 14.015939 -1.383633
2008-08-05 07:27:12 51°23.352 3°2.374 23.8182 2.115625 14.014689 -1.383633
2008-08-05 07:28:12 51°23.34 3°2.418 23.8449 2.115935 14.018692 -1.383633
2008-08-05 07:29:12 51°23.337 3°2.49 23.8641 2.115625 14.014437 -1.383633
2008-08-05 07:30:12 51°23.329 3°2.57 23.8859 2.115832 14.01996 -1.383633
2008-08-05 07:31:12 51°23.32 3°2.595 23.9075 2.115729 14.018457 -1.383633
2008-08-05 07:32:12 51°23.312 3°2.595 23.9287 2.115729 14.016946 -1.383633
2008-08-05 07:33:12 51°23.305 3°2.583 23.9519 2.115729 14.02148 -1.383633
2008-08-05 07:34:12 51°23.298 3°2.57 23.9756 2.115625 14.020733 -1.383633
2008-08-05 07:35:12 51°23.291 3°2.603 23.9967 2.115212 14.015478 -1.383633
2008-08-05 07:36:12 51°23.319 3°2.672 24.0175 2.115212 14.015981 -1.383633
2008-08-05 07:37:12 51°23.349 3°2.733 24.0376 2.115212 14.018248 -1.383633
2008-08-05 07:38:12 51°23.383 3°2.776 24.0598 2.115109 14.016997 -1.383633
2008-08-05 07:39:12 51°23.404 3°2.794 24.0796 2.115109 14.017501 -1.383633
2008-08-05 07:40:12 51°23.42 3°2.807 24.1003 2.114902 14.014999 -1.383633
2008-08-05 07:41:12 51°23.43 3°2.822 24.1235 2.114902 14.015755 -1.383633
2008-08-05 07:42:12 51°23.429 3°2.823 24.1467 2.114902 14.017014 -1.383633
2008-08-05 07:43:12 51°23.422 3°2.815 24.1673 2.115006 14.021289 -1.383633
2008-08-05 07:44:12 51°23.416 3°2.836 24.19 2.114696 14.014261 -1.383633
2008-08-05 07:45:12 51°23.426 3°2.865 24.21 2.114696 14.018291 -1.383633
2008-08-05 07:46:12 51°23.43 3°2.873 24.2325 2.114592 14.016284 -1.383633
2008-08-05 07:47:12 51°23.431 3°2.876 24.2532 2.114489 14.016293 -1.383633
2008-08-05 07:48:12 51°23.427 3°2.881 24.2734 2.114592 14.017544 -1.383633
2008-08-05 07:49:12 51°23.43 3°2.93 24.2915 2.114282 14.014546 -1.383633
2008-08-05 07:50:12 51°23.469 3°3.019 24.3131 2.114076 14.0128 -1.383633
2008-08-05 07:51:12 51°23.512 3°3.098 24.3297 2.114179 14.01531 -1.383633
2008-08-05 07:52:12 51°23.542 3°3.157 24.3485 2.114076 14.015319 -1.383633
2008-08-05 07:53:12 51°23.553 3°3.177 24.3682 2.113973 14.015328 -1.383633
2008-08-05 07:54:12 51°23.557 3°3.185 24.3889 2.113869 14.01458 -1.383633
2008-08-05 07:55:12 51°23.559 3°3.186 24.4124 2.113973 14.016588 -1.383633
2008-08-05 07:56:12 51°23.567 3°3.21 24.4254 2.113766 14.015597 -1.383633
2008-08-05 07:57:12 51°23.591 3°3.209 24.444 2.113456 14.011842 -1.383633
2008-08-05 07:58:12 51°23.595 3°3.187 24.46 2.113456 14.01285 -1.383633
2008-08-05 07:59:12 51°23.601 3°3.166 24.4781 2.113353 14.012355 -1.383633
2008-08-05 08:00:12 51°23.608 3°3.145 24.495 2.11325 14.011355 -1.383633
2008-08-05 08:01:12 51°23.617 3°3.123 24.5119 2.11325 14.012615 -1.383633
2008-08-05 08:02:12 51°23.625 3°3.102 24.5295 2.113043 14.009608 -1.383633
2008-08-05 08:03:12 51°23.633 3°3.083 24.5457 2.11294 14.008861 -1.383633
2008-08-05 08:04:12 51°23.64 3°3.064 24.5612 2.113043 14.011372 -1.383633
2008-08-05 08:05:12 51°23.647 3°3.046 24.5853 2.112836 14.010381 -1.383633
2008-08-05 08:06:12 51°23.654 3°3.028 24.599 2.112733 14.009633 -1.383633
2008-08-05 08:07:12 51°23.661 3°3.009 24.6225 2.112733 14.009633 -1.383633
2008-08-05 08:08:12 51°23.67 3°2.991 24.6378 2.11263 14.009894 -1.383633
2008-08-05 08:09:12 51°23.707 3°2.98 24.6653 2.11263 14.011658 -1.383633
2008-08-05 08:10:12 51°23.727 3°3.021 24.776 2.112527 14.012675 -1.383633
2008-08-05 08:11:12 51°23.694 3°3.039 24.7696 2.113043 14.018179 -1.383633
2008-08-05 08:12:12 51°23.637 3°3.021 24.7559 2.11325 14.021441 -1.383633
2008-08-05 08:13:12 51°23.558 3°3.036 24.8184 2.11356 14.021919 -1.383633
2008-08-05 08:14:12 51°23.479 3°2.958 24.7957 2.11387 14.027949 -1.383633
2008-08-05 08:15:12 51°23.407 3°2.83 24.814 2.113147 14.021955 -1.383633
2008-08-05 08:16:12 51°23.326 3°2.704 24.8243 2.11449 14.036481 -1.383633
2008-08-05 08:17:12 51°23.26 3°2.604 24.8341 2.11418 14.033478 -1.383633
2008-08-05 08:18:12 51°23.229 3°2.53 24.8286 2.113457 14.043667 -1.383633
2008-08-05 08:19:12 51°23.214 3°2.469 24.8442 2.112527 14.036925 -1.383633
2008-08-05 08:20:12 51°23.207 3°2.424 24.8598 2.112217 14.038222 -1.383633
2008-08-05 08:21:12 51°23.207 3°2.39 24.2561 2.112011 14.042042 -1.383633
2008-08-05 08:22:12 51°23.211 3°2.359 24.3785 2.111597 14.031195 -1.383633
2008-08-05 08:23:12 51°23.221 3°2.335 24.4808 2.111494 14.03323 -1.383633
2008-08-05 08:24:12 51°23.234 3°2.312 24.4811 2.111391 14.023881 -1.383633
2008-08-05 08:25:12 51°23.247 3°2.287 24.5056 2.110874 14.028735 -1.383633
2008-08-05 08:26:12 51°23.258 3°2.261 24.5419 2.110565 14.040671 -1.348809
2008-08-05 08:27:12 51°23.268 3°2.235 24.5423 2.110255 14.038167 -1.383633
2008-08-05 08:28:12 51°23.277 3°2.21 24.6121 2.110565 14.041939 -1.348809
2008-08-05 08:29:12 51°23.284 3°2.187 24.598 2.109842 14.039731 -1.383633
2008-08-05 08:30:12 51°23.29 3°2.162 24.6269 2.109738 14.039489 -1.383633
2008-08-05 08:31:12 51°23.296 3°2.136 24.6363 2.109222 14.039796 -1.383633
2008-08-05 08:32:12 51°23.3 3°2.112 24.634 2.108912 14.042114 -1.383633
2008-08-05 08:33:12 51°23.304 3°2.088 24.6482 2.108912 14.040337 -1.383633
2008-08-05 08:34:12 51°23.309 3°2.066 24.6642 2.108809 14.03578 -1.383633
2008-08-05 08:35:12 51°23.313 3°2.044 24.6655 2.108706 14.040866 -1.383633
2008-08-05 08:36:12 51°23.318 3°2.022 24.7029 2.108499 14.037842 -1.383633
2008-08-05 08:37:12 51°23.322 3°2 24.6777 2.108292 14.036341 -1.383633
2008-08-05 08:38:12 51°23.328 3°1.979 24.7191 2.108189 14.040667 -1.383633
2008-08-05 08:39:12 51°23.332 3°1.959 24.6858 2.108086 14.038393 -1.383633
2008-08-05 08:40:12 51°23.337 3°1.939 24.6932 2.108086 14.04017 -1.383633
2008-08-05 08:41:12 51°23.34 3°1.919 24.7 2.108086 14.043981 -1.383633
2008-08-05 08:42:12 51°23.343 3°1.899 24.7233 2.107879 14.036638 -1.383633
2008-08-05 08:43:12 51°23.346 3°1.879 24.7199 2.107776 14.036141 -1.383633
2008-08-05 08:44:12 51°23.35 3°1.858 24.735 2.107776 14.038426 -1.348809
2008-08-05 08:45:12 51°23.353 3°1.836 24.7471 2.107673 14.038183 -1.383633
2008-08-05 08:46:12 51°23.356 3°1.816 24.7297 2.107569 14.036416 -1.383633
2008-08-05 08:47:12 51°23.357 3°1.796 24.7403 2.107673 14.04428 -1.383633
2008-08-05 08:48:12 51°23.347 3°1.836 24.7152 2.10726 14.033149 -1.383633
2008-08-05 08:49:12 51°23.394 3°1.854 24.7508 2.10726 14.034418 -1.383633
2008-08-05 08:50:12 51°23.427 3°1.829 24.7254 2.107156 14.033921 -1.383633
2008-08-05 08:51:12 51°23.45 3°1.795 24.7219 2.10695 14.029121 -1.348809
2008-08-05 08:52:12 51°23.463 3°1.759 24.7265 2.10726 14.03518 -1.383633
2008-08-05 08:53:12 51°23.474 3°1.727 24.7386 2.107363 14.032377 -1.383633
2008-08-05 08:54:12 51°23.488 3°1.693 24.7624 2.107363 14.036184 -1.383633
2008-08-05 08:55:12 51°23.505 3°1.637 24.7411 2.10726 14.031372 -1.383633
2008-08-05 08:56:12 51°23.512 3°1.567 24.762 2.107156 14.032906 -1.383633
2008-08-05 08:57:12 51°23.505 3°1.499 24.7711 2.107053 14.030125 -1.383633
2008-08-05 08:58:12 51°23.484 3°1.455 24.7712 2.107156 14.028592 -1.383633
2008-08-05 08:59:12 51°23.459 3°1.448 24.7823 2.10695 14.033181 -1.383633
2008-08-05 09:00:12 51°23.429 3°1.45 24.7679 2.106743 14.031933 -1.383633
2008-08-05 09:01:12 51°23.395 3°1.449 24.7708 2.10664 14.035753 -1.383633
2008-08-05 09:02:12 51°23.362 3°1.447 24.7702 2.106537 14.033732 -1.383633
2008-08-05 09:03:12 51°23.327 3°1.448 24.7769 2.106433 14.031965 -1.383633
2008-08-05 09:04:12 51°23.292 3°1.447 24.7772 2.106227 14.030463 -1.383633
2008-08-05 09:05:12 51°23.258 3°1.447 24.7867 2.106227 14.03351 -1.383633
2008-08-05 09:06:12 51°23.224 3°1.442 24.7911 2.106123 14.031997 -1.383633
2008-08-05 09:07:12 51°23.19 3°1.439 24.8051 2.106123 14.026159 -1.383633
2008-08-05 09:08:12 51°23.157 3°1.436 24.7848 2.10602 14.029469 -1.383633
2008-08-05 09:09:12 51°23.129 3°1.427 24.7995 2.10602 14.028708 -1.383633
2008-08-05 09:10:12 51°23.106 3°1.416 24.7985 2.105917 14.037609 -1.383633
2008-08-05 09:11:12 51°23.087 3°1.402 24.8047 2.105814 14.030252 -1.383633
2008-08-05 09:12:12 51°23.068 3°1.387 24.7969 2.10571 14.034327 -1.383633
2008-08-05 09:13:12 51°23.049 3°1.37 24.8022 2.105607 14.032559 -1.383633
2008-08-05 09:14:12 51°23.031 3°1.352 24.8067 2.105504 14.031046 -1.383633
2008-08-05 09:15:12 51°23.013 3°1.335 24.8151 2.105297 14.034625 -1.383633
2008-08-05 09:16:12 51°22.996 3°1.319 24.8101 2.105401 14.038428 -1.383633
2008-08-05 09:17:12 51°22.977 3°1.301 24.8098 2.105194 14.033111 -1.383633
2008-08-05 09:18:12 51°22.958 3°1.283 24.811 2.105194 14.026253 -1.383633
2008-08-05 09:19:12 51°22.94 3°1.268 24.8145 2.105194 14.037687 -1.383633
2008-08-05 09:20:12 51°22.924 3°1.256 24.8164 2.105091 14.037698 -1.383633
2008-08-05 09:21:12 51°22.909 3°1.246 24.8252 2.104987 14.026782 -1.383633
2008-08-05 09:22:12 51°22.896 3°1.238 24.8259 2.104884 14.029078 -1.383633
2008-08-05 09:23:12 51°22.884 3°1.233 24.8234 2.104987 14.036692 -1.383633
2008-08-05 09:24:12 51°22.872 3°1.237 24.8206 2.104884 14.035432 -1.383633
2008-08-05 09:25:12 51°22.865 3°1.252 24.8231 2.104884 14.030095 -1.383633
2008-08-05 09:26:12 51°22.862 3°1.276 24.8266 2.104781 14.035189 -1.383633
2008-08-05 09:27:12 51°22.863 3°1.307 24.8268 2.104781 14.031884 -1.383633
2008-08-05 09:28:12 51°22.891 3°1.346 24.8313 2.104574 14.031398 -1.383633
2008-08-05 09:29:12 51°22.927 3°1.433 24.8326 2.104677 14.030878 -1.383633
2008-08-05 09:30:12 51°22.968 3°1.527 24.8248 2.104884 14.031873 -1.383633
2008-08-05 09:31:12 51°22.998 3°1.612 24.8309 2.104884 14.031111 -1.383633
2008-08-05 09:32:12 51°23.029 3°1.694 24.8308 2.104884 14.031365 -1.383633
2008-08-05 09:33:12 51°23.06 3°1.785 24.8285 2.104987 14.030084 -1.383633
2008-08-05 09:34:12 51°23.075 3°1.888 24.8293 2.104987 14.02856 -1.383633
2008-08-05 09:35:12 51°23.092 3°1.993 24.8316 2.105091 14.029819 -1.383633
2008-08-05 09:36:12 51°23.118 3°2.091 24.8266 2.105091 14.028041 -1.383633
2008-08-05 09:37:12 51°23.155 3°2.181 24.8318 2.10509 14.025502 -1.383633
2008-08-05 09:38:12 51°23.19 3°2.274 24.8321 2.105297 14.026497 -1.383633
2008-08-05 09:39:12 51°23.227 3°2.367 24.8293 2.105504 14.026476 -1.383633
2008-08-05 09:40:12 51°23.278 3°2.443 24.8322 2.105607 14.026211 -1.383633
2008-08-05 09:41:12 51°23.316 3°2.536 24.8346 2.10571 14.02544 -1.383633
2008-08-05 09:42:12 51°23.351 3°2.636 24.8333 2.10571 14.023917 -1.383633
2008-08-05 09:43:12 51°23.383 3°2.738 24.8317 2.105917 14.024404 -1.383633
2008-08-05 09:44:12 51°23.414 3°2.837 24.8337 2.10602 14.023126 -1.383633
2008-08-05 09:45:12 51°23.441 3°2.934 24.8368 2.10633 14.024871 -1.383633
2008-08-05 09:46:12 51°23.477 3°3.024 24.8388 2.106433 14.022325 -1.383633
2008-08-05 09:47:12 51°23.513 3°3.117 24.8386 2.10664 14.023572 -1.383633
2008-08-05 09:48:12 51°23.551 3°3.209 24.8419 2.106846 14.023806 -1.383633
2008-08-05 09:49:12 51°23.59 3°3.299 24.8411 2.106949 14.022275 -1.383633
2008-08-05 09:50:12 51°23.627 3°3.387 24.8429 2.107156 14.023268 -1.383633
2008-08-05 09:51:12 51°23.679 3°3.418 24.8396 2.107053 14.020998 -1.383633
2008-08-05 09:52:12 51°23.714 3°3.309 24.8378 2.107362 14.014892 -1.383633
2008-08-05 09:53:12 51°23.669 3°3.195 24.8527 2.107672 14.014358 -1.383633
2008-08-05 09:54:12 51°23.589 3°3.12 24.8478 2.108499 14.021367 -1.383633
2008-08-05 09:55:12 51°23.528 3°3.041 24.8472 2.108292 14.035833 -1.383633
2008-08-05 09:56:12 51°23.485 3°2.964 24.8514 2.108396 14.040137 -1.383633
2008-08-05 09:57:12 51°23.453 3°2.879 24.8493 2.108086 14.036109 -1.383633
2008-08-05 09:58:12 51°23.431 3°2.782 24.8519 2.108086 14.028246 -1.383633
2008-08-05 09:59:12 51°23.409 3°2.684 24.8529 2.108086 14.030528 -1.383633
2008-08-05 10:00:12 51°23.392 3°2.586 24.8533 2.108292 14.024679 -1.383633
2008-08-05 10:01:12 51°23.377 3°2.482 24.8531 2.108292 14.036087 -1.383633
2008-08-05 10:02:12 51°23.356 3°2.377 24.8542 2.108189 14.029503 -1.383633
2008-08-05 10:03:12 51°23.321 3°2.28 24.8553 2.108189 14.033561 -1.383633
2008-08-05 10:04:12 51°23.273 3°2.197 24.8574 2.108292 14.036595 -1.383633
2008-08-05 10:05:12 51°23.228 3°2.107 24.8564 2.108189 14.031278 -1.383633
2008-08-05 10:06:12 51°23.183 3°2.017 24.8602 2.108293 14.04218 -1.383633
2008-08-05 10:07:12 51°23.144 3°1.919 24.8602 2.108292 14.035072 -1.383633
2008-08-05 10:08:12 51°23.117 3°1.812 24.8599 2.108293 14.038371 -1.383633
2008-08-05 10:09:13 51°23.094 3°1.701 24.8623 2.108189 14.031785 -1.383633
2008-08-05 10:10:12 51°23.084 3°1.592 24.8621 2.108396 14.035569 -1.383633
2008-08-05 10:11:12 51°23.065 3°1.484 24.8662 2.108499 14.033529 -1.383633
2008-08-05 10:12:12 51°23.043 3°1.382 24.8695 2.108602 14.023383 -1.383633
2008-08-05 10:13:12 51°23.001 3°1.31 24.8695 2.108912 14.039575 -1.383633
2008-08-05 10:14:12 51°22.954 3°1.325 24.8718 2.108602 14.033011 -1.383633
2008-08-05 10:15:12 51°22.974 3°1.392 24.8732 2.108499 14.032008 -1.383633
2008-08-05 10:16:12 51°23.017 3°1.492 24.8743 2.108706 14.035537 -1.383633
2008-08-05 10:17:12 51°23.042 3°1.6 24.8745 2.108809 14.037302 -1.383633
2008-08-05 10:18:12 51°23.054 3°1.713 24.8774 2.108912 14.036277 -1.348809
2008-08-05 10:19:12 51°23.065 3°1.821 24.8776 2.109015 14.03652 -1.383633
2008-08-05 10:20:12 51°23.078 3°1.924 24.8791 2.109015 14.033477 -1.383633
2008-08-05 10:21:12 51°23.106 3°2.018 24.8791 2.109119 14.032199 -1.383633
2008-08-05 10:22:12 51°23.139 3°2.106 24.882 2.109325 14.033445 -1.383633
2008-08-05 10:23:13 51°23.192 3°2.168 24.8833 2.109428 14.030901 -1.383633
2008-08-05 10:24:12 51°23.233 3°2.244 24.8866 2.109738 14.032644 -1.383633
2008-08-05 10:25:13 51°23.272 3°2.331 24.8873 2.109842 14.029341 -1.383633
2008-08-05 10:26:12 51°23.305 3°2.423 24.8881 2.110048 14.030333 -1.383633
2008-08-05 10:27:13 51°23.335 3°2.52 24.8913 2.110151 14.028045 -1.383633
2008-08-05 10:28:12 51°23.364 3°2.616 24.8911 2.110461 14.030546 -1.383633
2008-08-05 10:29:12 51°23.394 3°2.713 24.8934 2.110565 14.027752 -1.383633
2008-08-05 10:30:12 51°23.426 3°2.81 24.8946 2.110771 14.029504 -1.383633
2008-08-05 10:31:12 51°23.457 3°2.901 24.898 2.111081 14.030992 -1.383633
2008-08-05 10:32:12 51°23.486 3°2.993 24.8964 2.111184 14.029464 -1.383633
2008-08-05 10:33:12 51°23.515 3°3.085 24.8994 2.111391 14.026915 -1.383633
2008-08-05 10:34:12 51°23.547 3°3.179 24.8999 2.111701 14.030174 -1.383633
2008-08-05 10:35:12 51°23.576 3°3.274 24.905 2.111907 14.029142 -1.383633
2008-08-05 10:36:12 51°23.606 3°3.372 24.9034 2.112114 14.028112 -1.383633
2008-08-05 10:37:12 51°23.639 3°3.457 24.9109 2.11232 14.029862 -1.383633
2008-08-05 10:38:12 51°23.687 3°3.429 24.9116 2.112424 14.025808 -1.383633
2008-08-05 10:39:13 51°23.695 3°3.322 24.9153 2.112837 14.025013 -1.383633
2008-08-05 10:40:12 51°23.643 3°3.235 24.9121 2.113146 14.02145 -1.383633
2008-08-05 10:41:13 51°23.583 3°3.141 24.9159 2.11356 14.023938 -1.383633
2008-08-05 10:42:12 51°23.535 3°3.041 24.9178 2.113663 14.027716 -1.383633
2008-08-05 10:43:12 51°23.499 3°2.931 24.9194 2.113663 14.032263 -1.383633
2008-08-05 10:44:12 51°23.463 3°2.821 24.9218 2.113766 14.032001 -1.383633
2008-08-05 10:45:12 51°23.43 3°2.71 24.9244 2.11387 14.027949 -1.383633
2008-08-05 10:46:13 51°23.397 3°2.599 24.9245 2.114076 14.031972 -1.383633
2008-08-05 10:47:12 51°23.368 3°2.501 24.9292 2.11418 14.030194 -1.383633
2008-08-05 10:48:13 51°23.339 3°2.407 24.9284 2.114386 14.025379 -1.383633
2008-08-05 10:49:12 51°23.31 3°2.318 24.9333 2.114489 14.02966 -1.383633
2008-08-05 10:50:12 51°23.274 3°2.235 24.9327 2.114696 14.03722 -1.383633
2008-08-05 10:51:12 51°23.237 3°2.156 24.9336 2.114696 14.033682 -1.383633
2008-08-05 10:52:12 51°23.199 3°2.065 24.9389 2.114903 14.034168 -1.383633
2008-08-05 10:53:12 51°23.16 3°1.97 24.9351 2.114903 14.032905 -1.383633
2008-08-05 10:54:12 51°23.121 3°1.872 24.9366 2.115006 14.030118 -1.383633
2008-08-05 10:55:13 51°23.1 3°1.767 24.9446 2.115109 14.035917 -1.383633
2008-08-05 10:56:12 51°23.093 3°1.66 24.9463 2.115109 14.034149 -1.383633
2008-08-05 10:57:13 51°23.085 3°1.547 24.9452 2.115316 14.034634 -1.383633
2008-08-05 10:58:12 51°23.069 3°1.439 24.9498 2.115522 14.037141 -1.348809
2008-08-05 10:59:13 51°23.04 3°1.333 24.951 2.115626 14.0341 -1.383633
2008-08-05 11:00:12 51°22.991 3°1.251 24.9598 2.115626 14.0341 -1.383633
2008-08-05 11:01:13 51°22.941 3°1.3 24.9725 2.115626 14.033091 -1.383633
2008-08-05 11:02:13 51°22.977 3°1.436 24.9489 2.115935 14.034072 -1.383633
2008-08-05 11:03:12 51°23.001 3°1.557 24.9528 2.116039 14.037092 -1.383633
2008-08-05 11:04:13 51°23.029 3°1.642 24.9528 2.116142 14.03481 -1.383633
2008-08-05 11:05:12 51°23.045 3°1.723 24.9574 2.116245 14.034296 -1.383633
2008-08-05 11:06:13 51°23.062 3°1.803 24.9552 2.116452 14.034529 -1.383633
2008-08-05 11:07:12 51°23.083 3°1.902 24.965 2.116452 14.03251 -1.383633
2008-08-05 11:08:12 51°23.123 3°2.005 24.9635 2.116658 14.032744 -1.383633
2008-08-05 11:09:12 51°23.149 3°2.117 24.9614 2.116865 14.034239 -1.383633
2008-08-05 11:10:12 51°23.185 3°2.22 24.965 2.117072 14.03195 -1.383633
2008-08-05 11:11:13 51°23.223 3°2.318 24.9673 2.117381 14.031922 -1.383633
2008-08-05 11:12:12 51°23.259 3°2.414 24.9644 2.117588 14.033669 -1.383633
2008-08-05 11:13:13 51°23.292 3°2.519 24.9677 2.117795 14.031634 -1.383633
2008-08-05 11:14:12 51°23.327 3°2.622 24.9685 2.117898 14.03112 -1.383633
2008-08-05 11:15:13 51°23.364 3°2.729 24.977 2.118208 14.029834 -1.383633
2008-08-05 11:16:12 51°23.398 3°2.833 24.9678 2.118517 14.030814 -1.383633
2008-08-05 11:17:13 51°23.433 3°2.94 24.9746 2.118724 14.028782 -1.383633
2008-08-05 11:18:13 51°23.469 3°3.043 24.9779 2.119034 14.031021 -1.383633
2008-08-05 11:19:13 51°23.507 3°3.147 24.9805 2.11924 14.029241 -1.383633
2008-08-05 11:20:13 51°23.543 3°3.253 24.9769 2.119447 14.028217 -1.383633
2008-08-05 11:21:12 51°23.577 3°3.359 24.9826 2.11986 14.030196 -1.383633
2008-08-05 11:22:13 51°23.612 3°3.469 24.9842 2.120067 14.029675 -1.383633
2008-08-05 11:23:12 51°23.659 3°3.527 24.9905 2.120273 14.028903 -1.383633
2008-08-05 11:24:13 51°23.698 3°3.451 24.9991 2.120583 14.024604 -1.383633
2008-08-05 11:25:13 51°23.661 3°3.335 24.9921 2.120996 14.025073 -1.383633
2008-08-05 11:26:12 51°23.601 3°3.237 24.991 2.121409 14.027301 -1.383633
2008-08-05 11:27:13 51°23.558 3°3.133 24.9907 2.121616 14.035581 -1.383633
2008-08-05 11:28:12 51°23.524 3°3.037 25.0003 2.121719 14.025016 -1.383633
2008-08-05 11:29:13 51°23.488 3°2.94 25.0013 2.122133 14.033274 -1.383633
2008-08-05 11:30:12 51°23.456 3°2.847 24.9998 2.122133 14.032269 -1.383633
2008-08-05 11:31:13 51°23.425 3°2.747 25.0076 2.122442 14.033248 -1.383633
2008-08-05 11:32:12 51°23.395 3°2.65 25.004 2.122546 14.036256 -1.383633
2008-08-05 11:33:13 51°23.366 3°2.548 25.0126 2.122752 14.034982 -1.383633
2008-08-05 11:34:12 51°23.363 3°2.463 25.0154 2.122959 14.038233 -1.383633
2008-08-05 11:35:13 51°23.372 3°2.415 25.0187 2.123062 14.035207 -1.383633
2008-08-05 11:36:13 51°23.378 3°2.348 25.0149 2.123269 14.034687 -1.383633
2008-08-05 11:37:13 51°23.344 3°2.268 25.011 2.123475 14.035424 -1.383633
2008-08-05 11:38:13 51°23.29 3°2.184 25.0188 2.123682 14.035407 -1.383633
2008-08-05 11:39:12 51°23.235 3°2.102 25.0225 2.123682 14.035909 -1.383633
2008-08-05 11:40:13 51°23.179 3°2.023 25.0262 2.123992 14.024589 -1.383633
2008-08-05 11:41:13 51°23.131 3°1.94 25.0279 2.123992 14.036889 -1.383633
2008-08-05 11:42:13 51°23.104 3°1.849 25.0288 2.123992 14.046192 -1.383633
2008-08-05 11:43:13 51°23.096 3°1.75 25.0295 2.124095 14.043164 -1.383633
2008-08-05 11:44:12 51°23.089 3°1.647 25.0319 2.124198 14.043909 -1.383633
2008-08-05 11:45:13 51°23.079 3°1.539 25.0353 2.124198 14.038881 -1.383633
2008-08-05 11:46:12 51°23.055 3°1.438 25.0362 2.124405 14.041628 -1.383633
2008-08-05 11:47:13 51°23.025 3°1.335 25.0339 2.124302 14.035607 -1.383633
2008-08-05 11:48:12 51°22.976 3°1.267 25.0467 2.124508 14.03785 -1.383633
2008-08-05 11:49:13 51°22.926 3°1.33 25.0485 2.124405 14.038361 -1.383633
2008-08-05 11:50:12 51°22.957 3°1.44 25.0455 2.124715 14.037833 -1.383633
2008-08-05 11:51:13 51°23.006 3°1.583 25.0382 2.124818 14.042096 -1.383633
2008-08-05 11:52:13 51°23.037 3°1.69 25.0392 2.125025 14.042581 -1.383633
2008-08-05 11:53:13 51°23.051 3°1.782 25.0476 2.125128 14.042823 -1.383633
2008-08-05 11:54:13 51°23.069 3°1.892 25.0479 2.125128 14.040813 -1.383633
2008-08-05 11:55:12 51°23.091 3°2.004 25.0513 2.125231 14.039297 -1.383633
2008-08-05 11:56:13 51°23.121 3°2.113 25.0531 2.125438 14.038275 -1.383633
2008-08-05 11:57:12 51°23.159 3°2.204 25.0616 2.125644 14.037505 -1.383633
2008-08-05 11:58:13 51°23.193 3°2.307 25.0605 2.125851 14.038241 -1.383633
2008-08-05 11:59:13 51°23.233 3°2.402 25.058 2.126058 14.038726 -1.383633
2008-08-05 12:00:13 51°23.276 3°2.496 25.0711 2.126367 14.03845 -1.383633
2008-08-05 12:01:13 51°23.317 3°2.591 25.0633 2.126367 14.036694 -1.383633
2008-08-05 12:02:13 51°23.354 3°2.694 25.0607 2.126574 14.036677 -1.383633
2008-08-05 12:03:13 51°23.389 3°2.8 25.0779 2.12678 14.035156 -1.383633
2008-08-05 12:04:13 51°23.423 3°2.904 25.0682 2.126987 14.03539 -1.383633
2008-08-05 12:05:13 51°23.459 3°3.01 25.081 2.127297 14.034364 -1.383633
2008-08-05 12:06:13 51°23.495 3°3.118 25.0771 2.127503 14.034097 -1.383633
2008-08-05 12:07:13 51°23.53 3°3.228 25.0806 2.12771 14.032077 -1.383633
2008-08-05 12:08:13 51°23.567 3°3.338 25.0843 2.12802 14.033807 -1.383633
2008-08-05 12:09:13 51°23.612 3°3.438 25.0834 2.12833 14.033282 -1.383633
2008-08-05 12:10:13 51°23.66 3°3.529 25.0963 2.12864 14.034511 -1.383633
2008-08-05 12:11:13 51°23.714 3°3.518 25.1031 2.12864 14.030756 -1.383633
2008-08-05 12:12:13 51°23.706 3°3.411 25.0913 2.129053 14.025223 -1.383633
2008-08-05 12:13:12 51°23.654 3°3.329 25.0917 2.129569 14.027437 -1.383633
2008-08-05 12:14:13 51°23.611 3°3.246 25.0935 2.129776 14.042939 -1.383633
2008-08-05 12:15:13 51°23.566 3°3.161 25.1035 2.129982 14.03466 -1.383633
2008-08-05 12:16:13 51°23.528 3°3.07 25.1032 2.130189 14.032894 -1.383633
2008-08-05 12:17:13 51°23.494 3°2.975 25.1018 2.130396 14.038884 -1.383633
2008-08-05 12:18:13 51°23.46 3°2.882 25.1089 2.130602 14.033364 -1.383633
2008-08-05 12:19:13 51°23.424 3°2.79 25.1144 2.130809 14.0361 -1.383633
2008-08-05 12:20:13 51°23.39 3°2.695 25.1147 2.131015 14.027337 -1.383633
2008-08-05 12:21:13 51°23.356 3°2.601 25.1146 2.131222 14.039571 -1.383633
2008-08-05 12:22:13 51°23.32 3°2.508 25.1159 2.131222 14.039321 -1.383633
2008-08-05 12:23:13 51°23.292 3°2.41 25.1181 2.131429 14.041557 -1.383633
2008-08-05 12:24:13 51°23.265 3°2.311 25.1205 2.131428 14.035804 -1.383633
2008-08-05 12:25:13 51°23.232 3°2.214 25.1264 2.131738 14.040533 -1.383633
2008-08-05 12:26:13 51°23.199 3°2.118 25.1247 2.131738 14.040533 -1.383633
2008-08-05 12:27:13 51°23.166 3°2.022 25.1273 2.131945 14.036516 -1.383633
2008-08-05 12:28:13 51°23.135 3°1.925 25.126 2.132048 14.039509 -1.383633
2008-08-05 12:29:13 51°23.117 3°1.823 25.1385 2.132151 14.038001 -1.383633
2008-08-05 12:30:13 51°23.099 3°1.72 25.1351 2.132255 14.038494 -1.383633
2008-08-05 12:31:13 51°23.078 3°1.616 25.1411 2.132461 14.040228 -1.383633
2008-08-05 12:32:13 51°23.058 3°1.512 25.1441 2.132461 14.042979 -1.383633
2008-08-05 12:33:13 51°23.037 3°1.408 25.143 2.132565 14.038721 -1.383633
2008-08-05 12:34:13 51°22.995 3°1.326 25.1587 2.132668 14.037464 -1.383633
2008-08-05 12:35:13 51°22.937 3°1.362 25.1578 2.132874 14.0352 -1.383633
2008-08-05 12:36:13 51°22.955 3°1.461 25.142 2.132771 14.031462 -1.383633
2008-08-05 12:37:13 51°22.997 3°1.57 25.151 2.133288 14.041167 -1.383633
2008-08-05 12:38:13 51°23.025 3°1.672 25.1487 2.133288 14.039417 -1.383633
2008-08-05 12:39:13 51°23.048 3°1.769 25.1534 2.133391 14.03891 -1.383633
2008-08-05 12:40:13 51°23.064 3°1.867 25.1581 2.133598 14.040144 -1.383633
2008-08-05 12:41:13 51°23.086 3°1.959 25.1609 2.133701 14.038888 -1.383633
2008-08-05 12:42:13 51°23.116 3°2.045 25.1607 2.133907 14.037624 -1.383633
2008-08-05 12:43:13 51°23.148 3°2.135 25.1656 2.134114 14.03761 -1.383633
2008-08-05 12:44:13 51°23.178 3°2.227 25.1637 2.134217 14.036354 -1.383633
2008-08-05 12:45:13 51°23.208 3°2.321 25.1725 2.134527 14.036333 -1.383633
2008-08-05 12:46:13 51°23.239 3°2.415 25.1725 2.134734 14.036069 -1.383633
2008-08-05 12:47:13 51°23.272 3°2.507 25.1808 2.13494 14.035805 -1.383633
2008-08-05 12:48:13 51°23.307 3°2.597 25.1745 2.135147 14.035043 -1.383633
2008-08-05 12:49:13 51°23.344 3°2.687 25.1793 2.135353 14.034779 -1.383633
2008-08-05 12:50:13 51°23.378 3°2.779 25.1805 2.135663 14.034758 -1.383633
2008-08-05 12:51:13 51°23.412 3°2.87 25.1855 2.135973 14.034239 -1.383633
2008-08-05 12:52:13 51°23.446 3°2.961 25.1902 2.13618 14.035222 -1.383633
2008-08-05 12:53:13 51°23.48 3°3.051 25.1906 2.136386 14.034461 -1.383633
2008-08-05 12:54:13 51°23.516 3°3.14 25.1885 2.136696 14.03469 -1.383633
2008-08-05 12:55:13 51°23.55 3°3.229 25.1919 2.136903 14.033929 -1.383633
2008-08-05 12:56:13 51°23.584 3°3.318 25.199 2.137213 14.033909 -1.383633
2008-08-05 12:57:13 51°23.618 3°3.408 25.1996 2.137419 14.033647 -1.383633
2008-08-05 12:58:13 51°23.651 3°3.498 25.2027 2.137626 14.033385 -1.383633
2008-08-05 12:59:13 51°23.688 3°3.564 25.2081 2.137936 14.036103 -1.383633
2008-08-05 13:00:13 51°23.724 3°3.518 25.2224 2.138039 14.033109 -1.383633
2008-08-05 13:01:13 51°23.685 3°3.44 25.1958 2.138245 14.025636 -1.383633
2008-08-05 13:02:13 51°23.63 3°3.368 25.2078 2.138865 14.033307 -1.383633
2008-08-05 13:03:13 51°23.592 3°3.272 25.2118 2.138865 14.034302 -1.383633
2008-08-05 13:04:13 51°23.57 3°3.163 25.2115 2.139072 14.037773 -1.383633
2008-08-05 13:05:13 51°23.544 3°3.053 25.2092 2.138969 14.039024 -1.383633
2008-08-05 13:06:13 51°23.511 3°2.95 25.214 2.139175 14.038761 -1.383633
2008-08-05 13:07:13 51°23.478 3°2.853 25.2148 2.139278 14.040248 -1.383633
2008-08-05 13:08:13 51°23.446 3°2.759 25.2133 2.139382 14.039246 -1.383633
2008-08-05 13:09:13 51°23.416 3°2.664 25.2215 2.139485 14.04148 -1.383633
2008-08-05 13:10:13 51°23.385 3°2.57 25.2208 2.139588 14.040228 -1.383633
2008-08-05 13:11:13 51°23.349 3°2.481 25.2248 2.139692 14.037733 -1.383633
2008-08-05 13:12:13 51°23.311 3°2.395 25.2208 2.139692 14.035245 -1.383633
2008-08-05 13:13:13 51°23.274 3°2.312 25.231 2.139898 14.040954 -1.383633
2008-08-05 13:14:13 51°23.241 3°2.228 25.2384 2.140001 14.040201 -1.383633
2008-08-05 13:15:13 51°23.207 3°2.146 25.2414 2.140001 14.036718 -1.383633
2008-08-05 13:16:13 51°23.171 3°2.066 25.2336 2.140311 14.041674 -1.383633
2008-08-05 13:17:13 51°23.136 3°1.986 25.2354 2.140208 14.039441 -1.383633
2008-08-05 13:18:13 51°23.117 3°1.898 25.2406 2.140208 14.039441 -1.383633
2008-08-05 13:19:13 51°23.104 3°1.808 25.2389 2.140311 14.040679 -1.383633
2008-08-05 13:20:13 51°23.091 3°1.718 25.2472 2.140415 14.038184 -1.383633
2008-08-05 13:21:13 51°23.083 3°1.629 25.2541 2.140518 14.041163 -1.383633
2008-08-05 13:22:13 51°23.058 3°1.553 25.2537 2.140518 14.037432 -1.383633
2008-08-05 13:23:13 51°23.044 3°1.472 25.2468 2.140621 14.037923 -1.383633
2008-08-05 13:24:13 51°23.015 3°1.417 25.2597 2.140725 14.041398 -1.383633
2008-08-05 13:25:13 51°22.97 3°1.444 25.2632 2.140724 14.035927 -1.383633
2008-08-05 13:26:13 51°22.961 3°1.553 25.2733 2.140828 14.035921 -1.383633
2008-08-05 13:27:13 51°23.003 3°1.633 25.264 2.140931 14.03343 -1.383633
2008-08-05 13:28:13 51°23.052 3°1.714 25.2561 2.141138 14.03466 -1.383633
2008-08-05 13:29:13 51°23.081 3°1.832 25.249 2.141344 14.037878 -1.383633
2008-08-05 13:30:13 51°23.094 3°1.964 25.2637 2.141448 14.037871 -1.383633
2008-08-05 13:31:13 51°23.111 3°2.079 25.2613 2.141447 14.036629 -1.383633
2008-08-05 13:32:13 51°23.137 3°2.175 25.266 2.141551 14.034635 -1.383633
2008-08-05 13:33:13 51°23.169 3°2.261 25.2755 2.141757 14.033133 -1.383633
2008-08-05 13:34:13 51°23.204 3°2.352 25.274 2.141861 14.033624 -1.383633
2008-08-05 13:35:13 51°23.233 3°2.44 25.2721 2.14217 14.034599 -1.383633
2008-08-05 13:36:13 51°23.249 3°2.496 25.2811 2.142274 14.032607 -1.383633
2008-08-05 13:37:13 51°23.263 3°2.542 25.2773 2.14248 14.033092 -1.383633
2008-08-05 13:38:13 51°23.273 3°2.585 25.2818 2.142584 14.033582 -1.383633
2008-08-05 13:39:13 51°23.28 3°2.626 25.2831 2.142893 14.030587 -1.383633
2008-08-05 13:40:13 51°23.284 3°2.668 25.2787 2.143203 14.036028 -1.383633
2008-08-05 13:41:13 51°23.286 3°2.71 25.2873 2.143307 14.035278 -1.383633
2008-08-05 13:42:13 51°23.288 3°2.756 25.2867 2.143513 14.033033 -1.383633
2008-08-05 13:43:13 51°23.298 3°2.736 25.3008 2.143513 14.035266 -1.383633
2008-08-05 13:44:13 51°23.237 3°2.564 25.2676 2.143926 14.036482 -1.383633
2008-08-05 13:45:13 51°23.174 3°2.306 25.2603 2.143926 14.032019 -1.383633
2008-08-05 13:46:13 51°23.164 3°2.149 25.3018 2.144546 14.041161 -1.383633
2008-08-05 13:47:13 51°23.165 3°1.993 25.2995 2.144236 14.034729 -1.383633
2008-08-05 13:48:13 51°23.146 3°1.89 25.3011 2.144546 14.036943 -1.383633
2008-08-05 13:49:13 51°23.123 3°1.814 25.2967 2.14465 14.038921 -1.383633
2008-08-05 13:50:13 51°23.114 3°1.751 25.2998 2.144753 14.03594 -1.383633
2008-08-05 13:51:13 51°23.149 3°1.735 25.2992 2.144959 14.039648 -1.383633
2008-08-05 13:52:13 51°23.206 3°1.806 25.3095 2.144959 14.035928 -1.383633
2008-08-05 13:53:13 51°23.285 3°2.066 25.3059 2.145166 14.03666 -1.383633
2008-08-05 13:54:13 51°23.361 3°2.412 25.2995 2.145476 14.039866 -1.383633
2008-08-05 13:55:13 51°23.433 3°2.767 25.2852 2.145579 14.037629 -1.383633
2008-08-05 13:56:13 51°23.476 3°3.026 25.3111 2.145682 14.040102 -1.383633
2008-08-05 13:57:13 51°23.506 3°3.165 25.2949 2.145682 14.038119 -1.383633
2008-08-05 13:58:13 51°23.513 3°3.221 25.3227 2.145682 14.033163 -1.383633
2008-08-05 13:59:13 51°23.52 3°3.283 25.32 2.145889 14.036125 -1.383633
2008-08-05 14:00:13 51°23.53 3°3.343 25.3246 2.145992 14.036119 -1.383633
2008-08-05 14:01:13 51°23.542 3°3.403 25.3287 2.146096 14.03537 -1.383633
2008-08-05 14:02:13 51°23.553 3°3.465 25.3338 2.146302 14.035359 -1.383633
2008-08-05 14:03:13 51°23.564 3°3.536 25.3333 2.146405 14.034115 -1.383633
2008-08-05 14:04:13 51°23.575 3°3.604 25.3476 2.146509 14.031882 -1.383633
2008-08-05 14:05:13 51°23.586 3°3.672 25.3503 2.146612 14.032867 -1.383633
2008-08-05 14:06:13 51°23.597 3°3.739 25.3541 2.146922 14.032851 -1.383633
2008-08-05 14:07:13 51°23.61 3°3.804 25.3446 2.147232 14.034567 -1.383633
2008-08-05 14:08:13 51°23.627 3°3.872 25.3483 2.147438 14.034062 -1.383633
2008-08-05 14:09:13 51°23.643 3°4.022 25.3206 2.147852 14.040475 -1.383633
2008-08-05 14:10:13 51°23.567 3°4.071 25.3288 2.148058 14.039721 -1.383633
2008-08-05 14:11:13 51°23.523 3°3.896 25.357 2.149401 14.046084 -1.383633
2008-08-05 14:12:13 51°23.448 3°3.665 25.3513 2.149401 14.042124 -1.383633
2008-08-05 14:13:13 51°23.357 3°3.438 25.3561 2.149504 14.040881 -1.383633
2008-08-05 14:14:13 51°23.276 3°3.205 25.3488 2.149608 14.043845 -1.383633
2008-08-05 14:15:13 51°23.204 3°2.967 25.3571 2.149504 14.043355 -1.383633
2008-08-05 14:16:13 51°23.125 3°2.734 25.3495 2.149504 14.040634 -1.383633
2008-08-05 14:17:13 51°23.047 3°2.501 25.3604 2.149504 14.03915 -1.383633
2008-08-05 14:18:13 51°22.973 3°2.262 25.3677 2.149814 14.042844 -1.383633
2008-08-05 14:19:13 51°22.908 3°2.027 25.3456 2.149814 14.04037 -1.383633
2008-08-05 14:20:13 51°22.896 3°1.89 25.3657 2.150228 14.051485 -1.383633
2008-08-05 14:21:12 51°22.916 3°1.843 25.3683 2.149814 14.042596 -1.383633
2008-08-05 14:22:13 51°22.921 3°1.801 25.366 2.149814 14.038639 -1.383633
2008-08-05 14:23:12 51°22.935 3°1.755 25.362 2.149814 14.038392 -1.383633
2008-08-05 14:24:13 51°22.955 3°1.698 25.3673 2.150021 14.039618 -1.383633
2008-08-05 14:25:13 51°22.981 3°1.676 25.3705 2.150227 14.039854 -1.383633
2008-08-05 14:26:13 51°23.012 3°1.703 25.374 2.150331 14.039849 -1.383633
2008-08-05 14:27:13 51°23.04 3°1.745 25.3781 2.150227 14.036888 -1.383633
2008-08-05 14:28:13 51°23.066 3°1.795 25.3818 2.15033 14.036636 -1.383633
2008-08-05 14:29:13 51°23.092 3°1.847 25.4123 2.150537 14.037861 -1.383633
2008-08-05 14:30:13 51°23.115 3°1.903 25.4068 2.150847 14.04007 -1.418457
2008-08-05 14:31:13 51°23.138 3°1.961 25.4134 2.150744 14.039828 -1.383633
2008-08-05 14:32:13 51°23.172 3°1.984 25.4178 2.150744 14.037357 -1.383633
2008-08-05 14:33:13 51°23.157 3°1.953 25.4274 2.150537 14.030452 -1.383633
2008-08-05 14:34:13 51°23.092 3°1.854 25.4402 2.151054 14.036354 -1.418457
2008-08-05 14:35:13 51°23.035 3°1.758 25.4539 2.151363 14.039302 -1.383633
2008-08-05 14:36:13 51°23.013 3°1.724 25.4629 2.151673 14.044723 -1.383633
2008-08-05 14:37:13 51°23.016 3°1.721 25.4718 2.15126 14.037825 -1.383633
2008-08-05 14:38:13 51°23.029 3°1.738 25.482 2.15126 14.036591 -1.383633
2008-08-05 14:39:12 51°23.044 3°1.764 25.4914 2.151363 14.035845 -1.383633
2008-08-05 14:40:13 51°23.059 3°1.793 25.5027 2.15157 14.036823 -1.383633
2008-08-05 14:41:13 51°23.053 3°1.816 25.5138 2.15157 14.034848 -1.383633
2008-08-05 14:42:13 51°23.021 3°1.8 25.5254 2.151673 14.037065 -1.383633
2008-08-05 14:43:13 51°23.02 3°1.794 25.5365 2.151777 14.035825 -1.383633
2008-08-05 14:44:13 51°23.031 3°1.799 25.5477 2.151777 14.034345 -1.383633
2008-08-05 14:45:13 51°23.049 3°1.806 25.5591 2.15188 14.03434 -1.383633
2008-08-05 14:46:13 51°23.112 3°1.83 25.6401 2.15157 14.030653 -1.383633
2008-08-05 14:47:13 51°23.156 3°1.986 25.6302 2.152293 14.03975 -1.383633
2008-08-05 14:48:13 51°23.137 3°2.113 25.6329 2.152086 14.032357 -1.383633
2008-08-05 14:49:13 51°23.1 3°2.146 25.656 2.152396 14.036043 -1.383633
2008-08-05 14:50:13 51°23.111 3°2.106 25.6068 2.152603 14.039982 -1.383633
2008-08-05 14:51:13 51°23.109 3°2.082 25.6336 2.152396 14.037771 -1.383633
2008-08-05 14:52:13 51°23.11 3°2.081 25.6394 2.1525 14.033818 -1.383633
2008-08-05 14:53:13 51°23.118 3°2.088 25.6523 2.1525 14.034065 -1.383633
2008-08-05 14:54:13 51°23.153 3°2.082 25.7249 2.152396 14.031357 -1.383633
2008-08-05 14:55:13 51°23.228 3°2.2 25.7215 2.153016 14.04095 -1.383633
2008-08-05 14:56:13 51°23.296 3°2.489 25.7011 2.152603 14.032334 -1.383633
2008-08-05 14:57:13 51°23.379 3°2.817 25.7239 2.153016 14.037001 -1.383633
2008-08-05 14:58:13 51°23.478 3°3.137 25.7383 2.152809 14.030846 -1.383633
2008-08-05 14:59:13 51°23.572 3°3.395 25.7151 2.153119 14.035517 -1.383633
2008-08-05 15:00:13 51°23.645 3°3.498 25.7206 2.153119 14.034037 -1.383633
2008-08-05 15:01:13 51°23.7 3°3.508 25.7302 2.153119 14.032312 -1.383633
2008-08-05 15:02:13 51°23.685 3°3.464 25.7586 2.153016 14.026896 -1.383633
2008-08-05 15:03:13 51°23.646 3°3.38 25.7709 2.153429 14.033531 -1.383633
2008-08-05 15:04:13 51°23.604 3°3.296 25.7929 2.153532 14.033033 -1.383633
2008-08-05 15:05:13 51°23.587 3°3.267 25.8007 2.153636 14.03574 -1.383633
2008-08-05 15:06:13 51°23.583 3°3.263 25.8097 2.153739 14.035243 -1.383633
2008-08-05 15:07:13 51°23.572 3°3.258 25.8284 2.153532 14.030323 -1.383633
2008-08-05 15:08:13 51°23.544 3°3.226 25.8493 2.153636 14.031304 -1.383633
2008-08-05 15:09:13 51°23.506 3°3.143 25.862 2.153739 14.032039 -1.383633
2008-08-05 15:10:13 51°23.47 3°3.033 25.8809 2.153842 14.03302 -1.383633
2008-08-05 15:11:13 51°23.437 3°2.928 25.8843 2.153842 14.029572 -1.383633
2008-08-05 15:12:13 51°23.429 3°2.883 25.9017 2.154049 14.033258 -1.383633
2008-08-05 15:13:13 51°23.433 3°2.875 25.901 2.154049 14.032765 -1.383633
2008-08-05 15:14:13 51°23.434 3°2.879 25.9254 2.153946 14.030306 -1.418457
2008-08-05 15:15:13 51°23.424 3°2.872 25.9382 2.153946 14.030799 -1.383633
2008-08-05 15:16:13 51°23.4 3°2.832 25.946 2.154049 14.031287 -1.383633
2008-08-05 15:17:13 51°23.385 3°2.816 25.9764 2.154152 14.032761 -1.383633
2008-08-05 15:18:13 51°23.376 3°2.825 25.9808 2.154152 14.030544 -1.383633
2008-08-05 15:19:13 51°23.366 3°2.812 26.0013 2.154049 14.032026 -1.383633
2008-08-05 15:20:13 51°23.359 3°2.774 26.013 2.154152 14.030298 -1.383633
2008-08-05 15:21:13 51°23.354 3°2.734 26.0235 2.154152 14.031037 -1.383633
2008-08-05 15:22:13 51°23.34 3°2.678 26.0542 2.154152 14.029313 -1.383633
2008-08-05 15:23:13 51°23.338 3°2.644 26.0412 2.154255 14.029801 -1.383633
2008-08-05 15:24:13 51°23.346 3°2.633 26.0509 2.154255 14.031032 -1.383633
2008-08-05 15:25:13 51°23.345 3°2.613 26.0763 2.154152 14.029067 -1.383633
2008-08-05 15:26:13 51°23.327 3°2.56 26.086 2.154152 14.02759 -1.383633
2008-08-05 15:27:13 51°23.295 3°2.476 26.1089 2.154152 14.028328 -1.383633
2008-08-05 15:28:13 51°23.268 3°2.411 26.1176 2.154359 14.030536 -1.383633
2008-08-05 15:29:13 51°23.252 3°2.4 26.1215 2.154359 14.027828 -1.383633
2008-08-05 15:30:13 51°23.239 3°2.409 26.1288 2.154359 14.029305 -1.383633
2008-08-05 15:31:13 51°23.218 3°2.384 26.1593 2.154359 14.029058 -1.383633
2008-08-05 15:32:13 51°23.207 3°2.321 26.1635 2.154359 14.028812 -1.383633
2008-08-05 15:33:13 51°23.21 3°2.274 26.1837 2.154359 14.02709 -1.383633
2008-08-05 15:34:13 51°23.223 3°2.259 26.1846 2.154359 14.027336 -1.383633
2008-08-05 15:35:13 51°23.236 3°2.259 26.1953 2.154462 14.028316 -1.383633
2008-08-05 15:36:13 51°23.243 3°2.262 26.2031 2.154359 14.025859 -1.383633
2008-08-05 15:37:13 51°23.234 3°2.243 26.2197 2.154359 14.026351 -1.383633
2008-08-05 15:38:13 51°23.196 3°2.203 26.232 2.154462 14.025609 -1.383633
2008-08-05 15:39:13 51°23.174 3°2.185 26.2452 2.154565 14.026836 -1.383633
2008-08-05 15:40:13 51°23.167 3°2.183 26.2479 2.154565 14.028066 -1.418457
2008-08-05 15:41:13 51°23.165 3°2.189 26.2665 2.154565 14.027082 -1.418457
2008-08-05 15:42:13 51°23.162 3°2.201 26.2711 2.154565 14.025852 -1.383633
2008-08-05 15:43:13 51°23.161 3°2.223 26.2863 2.154669 14.027078 -1.383633
2008-08-05 15:44:13 51°23.165 3°2.253 26.299 2.154669 14.027078 -1.418457
2008-08-05 15:45:13 51°23.172 3°2.289 26.322 2.154669 14.026094 -1.383633
2008-08-05 15:46:13 51°23.157 3°2.273 26.3659 2.154772 14.025844 -1.383633
2008-08-05 15:47:13 51°23.07 3°2.153 26.4561 2.154565 14.021671 -1.383633
2008-08-05 15:48:13 51°22.939 3°1.984 26.5341 2.154875 14.025348 -1.383633
2008-08-05 15:49:13 51°22.806 3°1.802 26.5096 2.155185 14.028042 -1.383633
2008-08-05 15:50:13 51°22.673 3°1.618 26.5153 2.155185 14.025091 -1.383633
2008-08-05 15:51:13 51°22.542 3°1.433 26.4977 2.154978 14.027312 -1.383633
2008-08-05 15:52:13 51°22.414 3°1.237 26.5056 2.155392 14.03271 -1.383633
2008-08-05 15:53:13 51°22.285 3°1.043 26.538 2.155392 14.027051 -1.383633
2008-08-05 15:54:13 51°22.16 3°0.841 26.5052 2.155185 14.044792 -1.383633
2008-08-05 15:55:13 51°22.025 3°0.648 26.5103 2.155185 14.030995 -1.383633
2008-08-05 15:56:13 51°21.892 3°0.455 26.5677 2.155185 14.038383 -1.383633
2008-08-05 15:57:13 51°21.764 3°0.254 26.5676 2.154875 14.037904 -1.383633
2008-08-05 15:58:13 51°21.636 3°0.055 26.5733 2.154979 14.036421 -1.383633
2008-08-05 15:59:13 51°21.518 2°59.847 26.4981 2.155082 14.034938 -1.383633
2008-08-05 16:00:13 51°21.4 2°59.636 24.5688 0.053733 0.279058 -1.418457
2008-08-05 16:01:13 51°21.286 2°59.42 24.2297 0.039738 0.206361 -1.383633
2008-08-05 16:02:13 51°21.171 2°59.203 24.1628 0.034181 0.177992 -1.418457
2008-08-05 16:03:13 51°21.058 2°58.985 24.0525 0.031094 0.16238 -1.383633
2008-08-05 16:04:13 51°20.948 2°58.762 23.9382 0.029035 0.152063 -1.418457
2008-08-05 16:05:13 51°20.833 2°58.542 23.8904 0.027492 0.144309 -1.383633
2008-08-05 16:06:13 51°20.719 2°58.322 23.7895 0.02636 0.138655 -1.383633
2008-08-05 16:07:13 51°20.606 2°58.1 23.7308 0.025434 0.134069 -1.383633
2008-08-05 16:08:13 51°20.497 2°57.866 23.6326 0.024611 0.129997 -1.383633
2008-08-05 16:09:13 51°20.392 2°57.627 23.535 0.023993 0.126952 -1.383633
2008-08-05 16:10:13 51°20.281 2°57.398 23.4372 0.023479 0.124429 -1.383633
2008-08-05 16:11:13 51°20.166 2°57.179 23.2779 0.023067 0.122436 -1.348809
2008-08-05 16:12:13 51°20.054 2°56.95 23.3296 0.022553 0.119889 -1.348809
2008-08-05 16:13:13 51°19.944 2°56.72 23.2621 0.022244 0.118404 -1.348809
2008-08-05 16:14:13 51°19.822 2°56.501 23.1476 0.021832 0.11637 -1.348809
2008-08-05 16:15:13 51°19.698 2°56.284 23.0411 0.021523 0.114851 -1.348809
2008-08-05 16:16:13 51°19.568 2°56.078 23.0038 0.021215 0.113319 -1.348809
2008-08-05 16:17:13 51°19.44 2°55.868 22.9565 0.020906 0.11179 -1.348809
2008-08-05 16:18:13 51°19.313 2°55.657 22.9228 0.0207 0.110804 -1.348809
2008-08-05 16:19:13 51°19.186 2°55.445 22.8688 0.020392 0.109269 -1.348809
2008-08-05 16:20:13 51°19.062 2°55.228 22.8709 0.020186 0.108262 -1.348809
2008-08-05 16:21:13 51°18.938 2°55.012 22.8087 0.01998 0.107257 -1.313985
2008-08-05 16:22:13 51°18.813 2°54.796 22.7186 0.019774 0.106252 -1.348809
2008-08-05 16:23:13 51°18.688 2°54.582 22.7015 0.019671 0.105775 -1.348809
2008-08-05 16:24:13 51°18.563 2°54.365 22.6742 0.019465 0.10477 -1.313985
2008-08-05 16:25:13 51°18.44 2°54.145 22.6669 0.01926 0.103737 -1.313985
2008-08-05 16:26:13 51°18.3 2°53.954 22.6372 0.019157 0.103242 -1.313985
2008-08-05 16:27:13 51°18.15 2°53.785 22.5632 0.019054 0.102745 -1.348809
2008-08-05 16:28:13 51°17.986 2°53.649 22.5401 0.018848 0.101699 -1.313985
2008-08-05 16:29:13 51°17.821 2°53.516 22.6156 0.018745 0.101209 -1.313985
2008-08-05 16:30:13 51°17.652 2°53.394 22.5009 0.018642 0.10071 -1.313985
2008-08-05 16:31:13 51°17.472 2°53.321 22.4987 0.018539 0.100208 -1.313985
2008-08-05 16:32:13 51°17.29 2°53.26 22.5165 0.018436 0.099711 -1.313985
2008-08-05 16:33:13 51°17.103 2°53.247 22.4424 0.018333 0.09922 -1.313985
2008-08-05 16:34:13 51°16.916 2°53.28 22.4042 0.018128 0.098181 -1.313985
2008-08-05 16:35:13 51°16.728 2°53.357 22.3961 0.018128 0.09822 -1.313985
2008-08-05 16:36:13 51°16.54 2°53.445 22.3662 0.018025 0.097721 -1.313985
2008-08-05 16:37:13 51°16.352 2°53.533 22.414 0.017922 0.097217 -1.313985
2008-08-05 16:38:13 51°16.164 2°53.615 22.3315 0.017819 0.096709 -1.313985
2008-08-05 16:39:13 51°15.974 2°53.687 22.3374 0.017716 0.096196 -1.313985
2008-08-05 16:40:13 51°15.784 2°53.767 22.3804 0.017613 0.095681 -1.313985
2008-08-05 16:41:13 51°15.596 2°53.873 22.2946 0.01751 0.095158 -1.313985
2008-08-05 16:42:13 51°15.412 2°53.987 22.2543 0.01751 0.095173 -1.313985
2008-08-05 16:43:13 51°15.236 2°54.12 22.2475 0.017407 0.094645 -1.313985
2008-08-05 16:44:13 51°15.061 2°54.257 22.2169 0.017304 0.094117 -1.313985
2008-08-05 16:45:13 51°14.896 2°54.424 22.2039 0.017304 0.09411 -1.313985
2008-08-05 16:46:13 51°14.738 2°54.615 22.2182 0.017202 0.093533 -1.313985
2008-08-05 16:47:13 51°14.578 2°54.803 22.1873 0.017099 0.092963 -1.313985
2008-08-05 16:48:13 51°14.428 2°55.013 22.1736 0.017099 0.092956 -1.313985
2008-08-05 16:49:13 51°14.302 2°55.213 22.1745 0.016996 0.092411 -1.313985
2008-08-05 16:50:13 51°14.166 2°55.373 22.1562 0.016996 0.09241 -1.313985
2008-08-05 16:51:13 51°14.006 2°55.494 22.1426 0.016893 0.091875 -1.313985
2008-08-05 16:52:13 51°13.854 2°55.603 22.1268 0.016893 0.091913 -1.313985
2008-08-05 16:53:13 51°13.764 2°55.703 22.1258 0.01679 0.091416 -1.348809